TimeCDT,TemperatureF,Dew PointF,Humidity,Sea Level PressureIn,VisibilityMPH,Wind Direction,Wind SpeedMPH,Gust SpeedMPH,PrecipitationIn,Events,Conditions,WindDirDegrees,DateUTC
12:10 AM,24.8,19.4,80,30.28,10.0,NW,6.9,-,N/A,,Clear,310,2013-04-02 05:10:00
12:31 AM,24.8,19.4,80,30.27,10.0,NW,4.6,-,N/A,,Clear,310,2013-04-02 05:31:00
12:50 AM,24.8,19.4,80,30.27,10.0,WNW,3.5,-,N/A,,Clear,300,2013-04-02 05:50:00
1:11 AM,24.8,19.4,80,30.27,10.0,WNW,4.6,-,N/A,,Clear,290,2013-04-02 06:11:00
1:31 AM,23.0,19.4,86,30.27,10.0,Calm,Calm,-,N/A,,Clear,0,2013-04-02 06:31:00
1:51 AM,23.0,19.4,86,30.27,10.0,WNW,3.5,-,N/A,,Clear,290,2013-04-02 06:51:00
2:11 AM,23.0,19.4,86,30.27,10.0,Calm,Calm,-,N/A,,Clear,0,2013-04-02 07:11:00
2:31 AM,23.0,19.4,86,30.27,10.0,West,4.6,-,N/A,,Clear,280,2013-04-02 07:31:00
2:50 AM,23.0,19.4,86,30.27,10.0,Calm,Calm,-,N/A,,Clear,0,2013-04-02 07:50:00
3:11 AM,21.2,19.4,93,30.27,10.0,Calm,Calm,-,N/A,,Clear,0,2013-04-02 08:11:00
3:30 AM,21.2,19.4,93,30.26,10.0,Calm,Calm,-,N/A,,Clear,0,2013-04-02 08:30:00
3:51 AM,21.2,19.4,93,30.26,10.0,Calm,Calm,-,N/A,,Clear,0,2013-04-02 08:51:00
4:10 AM,21.2,19.4,93,30.26,10.0,Calm,Calm,-,N/A,,Clear,0,2013-04-02 09:10:00
4:31 AM,21.2,19.4,93,30.27,10.0,Calm,Calm,-,N/A,,Clear,0,2013-04-02 09:31:00
4:51 AM,21.2,19.4,93,30.27,10.0,Calm,Calm,-,N/A,,Clear,0,2013-04-02 09:51:00
5:10 AM,21.2,17.6,86,30.27,10.0,Calm,Calm,-,N/A,,Clear,0,2013-04-02 10:10:00
5:31 AM,21.2,17.6,86,30.28,10.0,Calm,Calm,-,N/A,,Clear,0,2013-04-02 10:31:00
5:51 AM,21.2,19.4,93,30.28,10.0,Calm,Calm,-,N/A,,Clear,0,2013-04-02 10:51:00
6:10 AM,21.2,19.4,93,30.28,10.0,Calm,Calm,-,N/A,,Clear,0,2013-04-02 11:10:00
6:31 AM,21.2,19.4,93,30.29,10.0,Calm,Calm,-,N/A,,Clear,0,2013-04-02 11:31:00
6:51 AM,21.2,19.4,93,30.29,10.0,Calm,Calm,-,N/A,,Clear,0,2013-04-02 11:51:00
7:11 AM,21.2,19.4,93,30.30,10.0,NW,3.5,-,N/A,,Clear,310,2013-04-02 12:11:00
7:30 AM,23.0,19.4,86,30.31,10.0,NW,4.6,-,N/A,,Clear,310,2013-04-02 12:30:00
7:51 AM,23.0,19.4,86,30.31,10.0,Calm,Calm,-,N/A,,Clear,0,2013-04-02 12:51:00
8:11 AM,24.8,21.2,86,30.32,10.0,NW,4.6,-,N/A,,Clear,320,2013-04-02 13:11:00
8:30 AM,26.6,21.2,80,30.33,10.0,Calm,Calm,-,N/A,,Clear,0,2013-04-02 13:30:00
8:51 AM,26.6,21.2,80,30.33,10.0,NNW,5.8,-,N/A,,Clear,330,2013-04-02 13:51:00
9:31 AM,28.4,21.2,74,30.33,10.0,North,8.1,-,N/A,,Clear,360,2013-04-02 14:31:00
9:51 AM,28.4,21.2,74,30.33,10.0,North,6.9,-,N/A,,Clear,350,2013-04-02 14:51:00
10:10 AM,30.2,21.2,69,30.33,10.0,NNW,9.2,-,N/A,,Clear,340,2013-04-02 15:10:00
10:31 AM,30.2,21.2,69,30.33,10.0,NNW,6.9,-,N/A,,Clear,340,2013-04-02 15:31:00
10:51 AM,30.2,21.2,69,30.33,10.0,NNW,8.1,-,N/A,,Clear,330,2013-04-02 15:51:00
11:10 AM,30.2,21.2,69,30.33,10.0,North,6.9,-,N/A,,Clear,350,2013-04-02 16:10:00
11:31 AM,32.0,21.2,64,30.33,10.0,NNW,5.8,-,N/A,,Clear,330,2013-04-02 16:31:00
11:51 AM,32.0,21.2,64,30.33,10.0,NNW,6.9,-,N/A,,Clear,340,2013-04-02 16:51:00
12:10 PM,32.0,19.4,60,30.33,10.0,NNW,8.1,-,N/A,,Clear,330,2013-04-02 17:10:00
12:31 PM,32.0,19.4,60,30.33,10.0,North,3.5,-,N/A,,Clear,10,2013-04-02 17:31:00
12:51 PM,32.0,19.4,60,30.33,10.0,North,9.2,-,N/A,,Clear,350,2013-04-02 17:51:00
1:11 PM,33.8,19.4,56,30.33,10.0,Calm,Calm,-,N/A,,Clear,0,2013-04-02 18:11:00
1:30 PM,33.8,19.4,56,30.33,10.0,North,6.9,-,N/A,,Clear,360,2013-04-02 18:30:00
1:51 PM,33.8,19.4,56,30.33,10.0,North,4.6,-,N/A,,Clear,350,2013-04-02 18:51:00
2:11 PM,33.8,19.4,56,30.33,10.0,NNW,6.9,-,N/A,,Clear,340,2013-04-02 19:11:00
2:31 PM,33.8,17.6,52,30.32,10.0,Calm,Calm,-,N/A,,Clear,0,2013-04-02 19:31:00
2:50 PM,33.8,19.4,56,30.32,10.0,North,6.9,-,N/A,,Clear,350,2013-04-02 19:50:00
3:11 PM,33.8,19.4,56,30.32,10.0,North,5.8,-,N/A,,Clear,360,2013-04-02 20:11:00
3:30 PM,33.8,19.4,56,30.32,10.0,North,8.1,-,N/A,,Clear,360,2013-04-02 20:30:00
3:50 PM,33.8,19.4,56,30.32,10.0,North,5.8,-,N/A,,Clear,10,2013-04-02 20:50:00
4:11 PM,33.8,21.2,60,30.32,10.0,NNW,4.6,-,N/A,,Clear,340,2013-04-02 21:11:00
4:30 PM,33.8,21.2,60,30.32,10.0,North,6.9,-,N/A,,Clear,360,2013-04-02 21:30:00
4:46 PM,35.6,21.2,56,30.32,10.0,NNE,4.6,-,N/A,,Clear,20,2013-04-02 21:46:00
5:18 PM,33.8,19.4,56,30.32,10.0,North,6.9,-,N/A,,Clear,360,2013-04-02 22:18:00
5:31 PM,33.8,19.4,56,30.32,10.0,Calm,Calm,-,N/A,,Clear,0,2013-04-02 22:31:00
5:51 PM,33.8,19.4,56,30.32,10.0,North,4.6,-,N/A,,Clear,360,2013-04-02 22:51:00
6:10 PM,33.8,19.4,56,30.32,10.0,Calm,Calm,-,N/A,,Clear,0,2013-04-02 23:10:00
6:31 PM,33.8,19.4,56,30.33,10.0,NNE,6.9,-,N/A,,Clear,20,2013-04-02 23:31:00
6:51 PM,33.8,19.4,56,30.33,10.0,Calm,Calm,-,N/A,,Clear,0,2013-04-02 23:51:00
7:10 PM,33.8,21.2,60,30.33,10.0,Calm,Calm,-,N/A,,Clear,0,2013-04-03 00:10:00
7:31 PM,32.0,21.2,64,30.32,10.0,Calm,Calm,-,N/A,,Clear,0,2013-04-03 00:31:00
7:51 PM,32.0,23.0,69,30.32,10.0,Calm,Calm,-,N/A,,Clear,0,2013-04-03 00:51:00
8:10 PM,32.0,23.0,69,30.32,10.0,Calm,Calm,-,N/A,,Clear,0,2013-04-03 01:10:00
8:31 PM,30.2,21.2,69,30.32,10.0,Calm,Calm,-,N/A,,Clear,0,2013-04-03 01:31:00
8:51 PM,30.2,21.2,69,30.33,10.0,Calm,Calm,-,N/A,,Clear,0,2013-04-03 01:51:00
9:11 PM,30.2,23.0,75,30.33,10.0,Calm,Calm,-,N/A,,Clear,0,2013-04-03 02:11:00
9:30 PM,30.2,23.0,75,30.34,10.0,Calm,Calm,-,N/A,,Clear,0,2013-04-03 02:30:00
9:50 PM,30.2,23.0,75,30.34,10.0,Calm,Calm,-,N/A,,Clear,0,2013-04-03 02:50:00
10:11 PM,30.2,23.0,75,30.34,10.0,Calm,Calm,-,N/A,,Clear,0,2013-04-03 03:11:00
10:30 PM,30.2,23.0,75,30.34,10.0,Calm,Calm,-,N/A,,Clear,0,2013-04-03 03:30:00
10:51 PM,30.2,23.0,75,30.34,10.0,Calm,Calm,-,N/A,,Clear,0,2013-04-03 03:51:00
11:10 PM,30.2,23.0,75,30.34,10.0,Calm,Calm,-,N/A,,Clear,0,2013-04-03 04:10:00
11:30 PM,30.2,23.0,75,30.34,10.0,Calm,Calm,-,N/A,,Clear,0,2013-04-03 04:30:00
11:51 PM,28.4,21.2,74,30.34,10.0,Calm,Calm,-,N/A,,Clear,0,2013-04-03 04:51:00